Flag for Germany Weather past 2 weeks in Rheinfelden (Baden), Baden-Württemberg, Germany

Now
73 °F

Scattered clouds.


Feels Like: 76 °F
Forecast: 46 / 77 °F
Wind: 2 mph from North

Location: Bale-Mulhouse

Current Time: Sep 16, 2014 at 1:31:04 PM

Latest Report: Sep 16, 2014 at 1:00 PM


Visibility: N/A

Pressure: 29.98 "Hg

Humidity: 61%

Dew point: 59 °F

Location of Rheinfelden (Baden)Location

Historic Weather in Rheinfelden (Baden) — Graph

°F

Rheinfelden (Baden) temperature yesterday

Maximum temperature yesterday: 75 °F (at 3:30 PM)
Minimum temperature yesterday: 52 °F (at 2:00 AM)
Average temperature yesterday: 61 °F

Past Weeks' High & Low Weather Summary

 TemperatureHumidityPressure
High81 °F (Sep 6, 3:30 PM)100% (Sep 2, 2:00 AM)30.15 "Hg (Sep 2, 2:00 AM)
Low46 °F (Sep 2, 3:00 AM)44% (Sep 5, 7:00 PM)29.89 "Hg (Sep 6, 3:00 PM)
Average62 °F82%30.02 "Hg
* Reported Sep 1 12:00 Noon — Sep 16 12:30 PM, Rheinfelden (Baden), Weather by CustomWeather, © 2014

Note: Actual official high and low records may vary slightly from our data, if they occured in-between our weather recording intervals... More about our weather records

Advertising

Rheinfelden (Baden) weather history for previous 24 hours

 ConditionsComfort  
Time TempWeatherWind HumidityBarometerVisibility
12:30 PM
Sep 16
73 °FScattered clouds.2 mph65%29.98 "HgN/A
12:00 PM72 °FScattered clouds.2 mph65%29.98 "HgN/A
11:30 AM70 °FPartly sunny.3 mph69%29.98 "HgN/A
11:00 AM68 °FPartly sunny.3 mph73%30.01 "HgN/A
10:30 AM64 °FPartly sunny.2 mph83%30.01 "HgN/A
10:00 AM61 °FPartly sunny.1 mph100%30.01 "Hg6 mi
9:30 AM59 °FScattered clouds.1 mph100%30.01 "Hg4 mi
9:00 AM57 °FFog.No wind100%30.01 "Hg0 mi
8:30 AM57 °FFog.1 mph100%29.98 "Hg0 mi
8:00 AM57 °FFog.1 mph94%29.98 "Hg0 mi
7:30 AM55 °FFog.2 mph100%29.98 "Hg0 mi
7:00 AM55 °FFog.3 mph100%29.98 "Hg0 mi
6:30 AM54 °FFog.2 mph94%29.98 "Hg0 mi
6:00 AM52 °FFog.2 mph94%29.98 "Hg0 mi
5:30 AM52 °FSnow. Overcast.3 mph94%29.98 "Hg1 mi
5:00 AM52 °FSnow. Overcast.No wind100%29.98 "Hg1 mi
4:30 AM52 °FSleet. Overcast.No wind94%29.98 "Hg4 mi
4:00 AM52 °FLight fog.No wind100%29.98 "Hg1 mi
3:00 AM54 °FLight fog.1 mph94%29.98 "Hg6 mi
2:30 AM55 °FFog.5 mph94%29.98 "Hg3 mi
2:00 AM54 °FClear.2 mph94%29.98 "Hg6 mi
1:30 AM55 °FClear.No wind100%29.98 "Hg5 mi
1:00 AM55 °FFog.1 mph94%29.98 "Hg1 mi
12:30 AM55 °FClear.2 mph94%29.98 "Hg4 mi
12:00 AM57 °FClear.2 mph94%29.98 "Hg10 mi
11:30 PM
Sep 15
59 °FClear.3 mph88%29.98 "Hg10 mi
11:00 PM59 °FClear.6 mph94%29.98 "Hg10 mi
10:30 PM61 °FClear.2 mph94%29.98 "Hg10 mi
10:00 PM61 °FClear.1 mph88%29.98 "Hg10 mi
9:30 PM61 °FClear.3 mph88%29.98 "Hg10 mi
9:00 PM63 °FClear.3 mph88%29.98 "Hg10 mi
8:30 PM64 °FPartly sunny.5 mph88%29.95 "HgN/A
8:00 PM66 °FPartly sunny.5 mph83%29.95 "HgN/A
7:30 PM66 °FPartly sunny.2 mph83%29.95 "HgN/A
7:00 PM66 °FBroken clouds.3 mph83%29.95 "HgN/A
6:30 PM68 °FBroken clouds.2 mph78%29.95 "HgN/A
6:00 PM72 °FPartly sunny.3 mph61%29.95 "HgN/A
5:30 PM75 °FPartly sunny.3 mph54%29.95 "HgN/A
5:00 PM75 °FScattered clouds.5 mph54%29.95 "HgN/A
4:30 PM75 °FScattered clouds.3 mph54%29.95 "HgN/A
4:00 PM75 °FScattered clouds.3 mph57%29.95 "HgN/A
3:30 PM75 °FScattered clouds.3 mph57%29.95 "HgN/A
3:00 PM73 °FPartly sunny.3 mph61%29.95 "HgN/A
2:30 PM72 °FPartly sunny.3 mph69%29.98 "HgN/A
2:00 PM70 °FPartly sunny.3 mph73%29.98 "HgN/A
1:30 PM70 °FPartly sunny.5 mph73%29.98 "HgN/A
1:00 PM66 °FPartly sunny.6 mph78%29.98 "HgN/A
Weather by CustomWeather, © 2014

See weather overviewHow to use our weather pages